Location: Tucson
(32.2217°N, 110.9265°W)
Time: 08:03:47
(UTC-07:00)

Tiros 1 - Pass Details

Date: 02 November 2021
Orbit: 629 x 664 km, 48.4° (Epoch: 27 November)

Event Time Altitude Azimuth Distance (km) Brightness Sun altitude
Rises 14:03:54 0° 302° (WNW) 2,965 10.6 35.1°
Reaches altitude 10° 14:06:21 10° 296° (WNW) 2,046 9.9 34.8°
Maximum altitude 14:10:47 41° 226° (SW) 931 10.4 34.3°
Drops below altitude 10° 14:15:08 10° 156° (SSE) 2,016 10.1 33.7°
Sets 14:17:32 0° 149° (SSE) 2,916 10.8 33.4°
